Year,Month,Day,Hour,Minute,Value (Times are PST for temperature in C)
2015,07,29,00,00,16.40
2015,07,29,00,01,16.40
2015,07,29,00,02,16.40
2015,07,29,00,03,16.40
2015,07,29,00,04,16.40
2015,07,29,00,05,16.40
2015,07,29,00,06,16.40
2015,07,29,00,07,16.40
2015,07,29,00,08,16.40
2015,07,29,00,09,16.40
2015,07,29,00,10,16.40
2015,07,29,00,11,16.40
2015,07,29,00,12,16.40
2015,07,29,00,13,16.40
2015,07,29,00,14,16.40
2015,07,29,00,15,16.40
2015,07,29,00,16,16.40
2015,07,29,00,17,16.40
2015,07,29,00,18,16.40
2015,07,29,00,19,16.40
2015,07,29,00,20,16.30
2015,07,29,00,21,16.30
2015,07,29,00,22,16.30
2015,07,29,00,23,16.30
2015,07,29,00,24,16.30
2015,07,29,00,25,16.30
2015,07,29,00,26,16.30
2015,07,29,00,27,16.30
2015,07,29,00,28,16.20
2015,07,29,00,29,16.20
2015,07,29,00,30,16.20
2015,07,29,00,31,16.20
2015,07,29,00,32,16.10
2015,07,29,00,33,16.10
2015,07,29,00,34,16.10
2015,07,29,00,35,16.00
2015,07,29,00,36,16.00
2015,07,29,00,37,16.00
2015,07,29,00,38,15.90
2015,07,29,00,39,15.90
2015,07,29,00,40,15.90
2015,07,29,00,41,15.90
2015,07,29,00,42,15.90
2015,07,29,00,43,15.80
2015,07,29,00,44,15.80
2015,07,29,00,45,15.80
2015,07,29,00,46,15.80
2015,07,29,00,47,15.80
2015,07,29,00,48,15.70
2015,07,29,00,49,15.70
2015,07,29,00,50,15.70
2015,07,29,00,51,15.70
2015,07,29,00,52,15.70
2015,07,29,00,53,15.70
2015,07,29,00,54,15.60
2015,07,29,00,55,15.60
2015,07,29,00,56,15.60
2015,07,29,00,57,15.60
2015,07,29,00,58,15.60
2015,07,29,00,59,15.60
2015,07,29,01,00,15.50
2015,07,29,01,01,15.50
2015,07,29,01,02,15.50
2015,07,29,01,03,15.50
2015,07,29,01,04,15.50
2015,07,29,01,05,15.40
2015,07,29,01,06,15.40
2015,07,29,01,07,15.40
2015,07,29,01,08,15.40
2015,07,29,01,09,15.40
2015,07,29,01,10,15.40
2015,07,29,01,11,15.40
2015,07,29,01,12,15.40
2015,07,29,01,13,15.40
2015,07,29,01,14,15.40
2015,07,29,01,15,15.30
2015,07,29,01,16,15.30
2015,07,29,01,17,15.30
2015,07,29,01,18,15.20
2015,07,29,01,19,15.20
2015,07,29,01,20,15.20
2015,07,29,01,21,15.10
2015,07,29,01,22,15.10
2015,07,29,01,23,15.10
2015,07,29,01,24,15.00
2015,07,29,01,25,15.00
2015,07,29,01,26,14.90
2015,07,29,01,27,14.90
2015,07,29,01,28,14.90
2015,07,29,01,29,14.90
2015,07,29,01,30,14.90
2015,07,29,01,31,14.90
2015,07,29,01,32,14.90
2015,07,29,01,33,14.90
2015,07,29,01,34,14.90
2015,07,29,01,35,14.90
2015,07,29,01,36,14.90
2015,07,29,01,37,14.90
2015,07,29,01,38,14.90
2015,07,29,01,39,14.90
2015,07,29,01,40,14.90
2015,07,29,01,41,14.90
2015,07,29,01,42,14.90
2015,07,29,01,43,14.90
2015,07,29,01,44,14.90
2015,07,29,01,45,14.90
2015,07,29,01,46,14.90
2015,07,29,01,47,14.90
2015,07,29,01,48,14.90
2015,07,29,01,49,14.90
2015,07,29,01,50,14.80
2015,07,29,01,51,14.80
2015,07,29,01,52,14.80
2015,07,29,01,53,14.80
2015,07,29,01,54,14.80
2015,07,29,01,55,14.80
2015,07,29,01,56,14.80
2015,07,29,01,57,14.80
2015,07,29,01,58,14.80
2015,07,29,01,59,14.80
2015,07,29,02,00,14.80
2015,07,29,02,01,14.70
2015,07,29,02,02,14.70
2015,07,29,02,03,14.70
2015,07,29,02,04,14.70
2015,07,29,02,05,14.70
2015,07,29,02,06,14.70
2015,07,29,02,07,14.70
2015,07,29,02,08,14.70
2015,07,29,02,09,14.60
2015,07,29,02,10,14.60
2015,07,29,02,11,14.60
2015,07,29,02,12,14.60
2015,07,29,02,13,14.60
2015,07,29,02,14,14.60
2015,07,29,02,15,14.60
2015,07,29,02,16,14.50
2015,07,29,02,17,14.50
2015,07,29,02,18,14.50
2015,07,29,02,19,14.40
2015,07,29,02,20,14.40
2015,07,29,02,21,14.40
2015,07,29,02,22,14.40
2015,07,29,02,23,14.50
2015,07,29,02,24,14.50
2015,07,29,02,25,14.50
2015,07,29,02,26,14.60
2015,07,29,02,27,14.60
2015,07,29,02,28,14.60
2015,07,29,02,29,14.60
2015,07,29,02,30,14.70
2015,07,29,02,31,14.70
2015,07,29,02,32,14.70
2015,07,29,02,33,14.70
2015,07,29,02,34,14.70
2015,07,29,02,35,14.70
2015,07,29,02,36,14.70
2015,07,29,02,37,14.70
2015,07,29,02,38,14.70
2015,07,29,02,39,14.70
2015,07,29,02,40,14.70
2015,07,29,02,41,14.70
2015,07,29,02,42,14.70
2015,07,29,02,43,14.70
2015,07,29,02,44,14.70
2015,07,29,02,45,14.70
2015,07,29,02,46,14.70
2015,07,29,02,47,14.70
2015,07,29,02,48,14.60
2015,07,29,02,49,14.60
2015,07,29,02,50,14.60
2015,07,29,02,51,14.60
2015,07,29,02,52,14.60
2015,07,29,02,53,14.60
2015,07,29,02,54,14.50
2015,07,29,02,55,14.50
2015,07,29,02,56,14.50
2015,07,29,02,57,14.40
2015,07,29,02,58,14.40
2015,07,29,02,59,14.40
2015,07,29,03,00,14.40
2015,07,29,03,01,14.40
2015,07,29,03,02,14.30
2015,07,29,03,03,14.30
2015,07,29,03,04,14.30
2015,07,29,03,05,14.30
2015,07,29,03,06,14.30
2015,07,29,03,07,14.30
2015,07,29,03,08,14.30
2015,07,29,03,09,14.30
2015,07,29,03,10,14.30
2015,07,29,03,11,14.30
2015,07,29,03,12,14.30
2015,07,29,03,13,14.30
2015,07,29,03,14,14.30
2015,07,29,03,15,14.30
2015,07,29,03,16,14.30
2015,07,29,03,17,14.20
2015,07,29,03,18,14.20
2015,07,29,03,19,14.20
2015,07,29,03,20,14.20
2015,07,29,03,21,14.20
2015,07,29,03,22,14.20
2015,07,29,03,23,14.20
2015,07,29,03,24,14.10
2015,07,29,03,25,14.10
2015,07,29,03,26,14.10
2015,07,29,03,27,14.10
2015,07,29,03,28,14.10
2015,07,29,03,29,14.10
2015,07,29,03,30,14.10
2015,07,29,03,31,14.10
2015,07,29,03,32,14.00
2015,07,29,03,33,14.00
2015,07,29,03,34,14.00
2015,07,29,03,35,14.00
2015,07,29,03,36,14.10
2015,07,29,03,37,14.00
2015,07,29,03,38,14.10
2015,07,29,03,39,14.10
2015,07,29,03,40,14.00
2015,07,29,03,41,14.00
2015,07,29,03,42,14.00
2015,07,29,03,43,14.00
2015,07,29,03,44,14.00
2015,07,29,03,45,14.00
2015,07,29,03,46,14.00
2015,07,29,03,47,14.00
2015,07,29,03,48,14.00
2015,07,29,03,49,14.00
2015,07,29,03,50,14.00
2015,07,29,03,51,14.00
2015,07,29,03,52,13.90
2015,07,29,03,53,13.90
2015,07,29,03,54,13.90
2015,07,29,03,55,13.90
2015,07,29,03,56,13.90
2015,07,29,03,57,13.90
2015,07,29,03,58,13.80
2015,07,29,03,59,13.80
2015,07,29,04,00,13.80
2015,07,29,04,01,13.80
2015,07,29,04,02,13.80
2015,07,29,04,03,13.80
2015,07,29,04,04,13.70
2015,07,29,04,05,13.70
2015,07,29,04,06,13.70
2015,07,29,04,07,13.70
2015,07,29,04,08,13.70
2015,07,29,04,09,13.70
2015,07,29,04,10,13.60
2015,07,29,04,11,13.60
2015,07,29,04,12,13.60
2015,07,29,04,13,13.60
2015,07,29,04,14,13.60
2015,07,29,04,15,13.60
2015,07,29,04,16,13.60
2015,07,29,04,17,13.60
2015,07,29,04,18,13.60
2015,07,29,04,19,13.60
2015,07,29,04,20,13.60
2015,07,29,04,21,13.60
2015,07,29,04,22,13.60
2015,07,29,04,23,13.60
2015,07,29,04,24,13.60
2015,07,29,04,25,13.60
2015,07,29,04,26,13.60
2015,07,29,04,27,13.60
2015,07,29,04,28,13.60
2015,07,29,04,29,13.60
2015,07,29,04,30,13.60
2015,07,29,04,31,13.60
2015,07,29,04,32,13.60
2015,07,29,04,33,13.60
2015,07,29,04,34,13.60
2015,07,29,04,35,13.50
2015,07,29,04,36,13.50
2015,07,29,04,37,13.50
2015,07,29,04,38,13.50
2015,07,29,04,39,13.50
2015,07,29,04,40,13.50
2015,07,29,04,41,13.50
2015,07,29,04,42,13.50
2015,07,29,04,43,13.40
2015,07,29,04,44,13.40
2015,07,29,04,45,13.40
2015,07,29,04,46,13.40
2015,07,29,04,47,13.40
2015,07,29,04,48,13.40
2015,07,29,04,49,13.30
2015,07,29,04,50,13.30
2015,07,29,04,51,13.30
2015,07,29,04,52,13.30
2015,07,29,04,53,13.30
2015,07,29,04,54,13.30
2015,07,29,04,55,13.30
2015,07,29,04,56,13.30
2015,07,29,04,57,13.30
2015,07,29,04,58,13.30
2015,07,29,04,59,13.20
2015,07,29,05,00,13.20
2015,07,29,05,01,13.20
2015,07,29,05,02,13.20
2015,07,29,05,03,13.20
2015,07,29,05,04,13.20
2015,07,29,05,05,13.10
2015,07,29,05,06,13.10
2015,07,29,05,07,13.10
2015,07,29,05,08,13.10
2015,07,29,05,09,13.00
2015,07,29,05,10,13.00
2015,07,29,05,11,13.00
2015,07,29,05,12,13.00
2015,07,29,05,13,13.00
2015,07,29,05,14,13.00
2015,07,29,05,15,12.90
2015,07,29,05,16,12.90
2015,07,29,05,17,12.90
2015,07,29,05,18,12.90
2015,07,29,05,19,12.90
2015,07,29,05,20,12.90
2015,07,29,05,21,12.80
2015,07,29,05,22,12.80
2015,07,29,05,23,12.80
2015,07,29,05,24,12.80
2015,07,29,05,25,12.80
2015,07,29,05,26,12.80
2015,07,29,05,27,12.80
2015,07,29,05,28,12.80
2015,07,29,05,29,12.80
2015,07,29,05,30,12.80
2015,07,29,05,31,12.80
2015,07,29,05,32,12.80
2015,07,29,05,33,12.80
2015,07,29,05,34,12.80
2015,07,29,05,35,12.80
2015,07,29,05,36,12.80
2015,07,29,05,37,12.70
2015,07,29,05,38,12.70
2015,07,29,05,39,12.70
2015,07,29,05,40,12.70
2015,07,29,05,41,12.70
2015,07,29,05,42,12.70
2015,07,29,05,43,12.70
2015,07,29,05,44,12.70
2015,07,29,05,45,12.70
2015,07,29,05,46,12.70
2015,07,29,05,47,12.70
2015,07,29,05,48,12.70
2015,07,29,05,49,12.60
2015,07,29,05,50,12.60
2015,07,29,05,51,12.60
2015,07,29,05,52,12.60
2015,07,29,05,53,12.60
2015,07,29,05,54,12.60
2015,07,29,05,55,12.60
2015,07,29,05,56,12.70
2015,07,29,05,57,12.70
2015,07,29,05,58,12.70
2015,07,29,05,59,12.70
2015,07,29,06,00,12.70
2015,07,29,06,01,12.70
2015,07,29,06,02,12.70
2015,07,29,06,03,12.70
2015,07,29,06,04,12.70
2015,07,29,06,05,12.80
2015,07,29,06,06,12.80
2015,07,29,06,07,12.80
2015,07,29,06,08,12.80
2015,07,29,06,09,12.90
2015,07,29,06,10,12.90
2015,07,29,06,11,12.90
2015,07,29,06,12,12.90
2015,07,29,06,13,13.00
2015,07,29,06,14,13.00
2015,07,29,06,15,13.00
2015,07,29,06,16,13.10
2015,07,29,06,17,13.10
2015,07,29,06,18,13.10
2015,07,29,06,19,13.10
2015,07,29,06,20,13.10
2015,07,29,06,21,13.10
2015,07,29,06,22,13.20
2015,07,29,06,23,13.20
2015,07,29,06,24,13.20
2015,07,29,06,25,13.20
2015,07,29,06,26,13.20
2015,07,29,06,27,13.30
2015,07,29,06,28,13.30
2015,07,29,06,29,13.30
2015,07,29,06,30,13.40
2015,07,29,06,31,13.40
2015,07,29,06,32,13.40
2015,07,29,06,33,13.40
2015,07,29,06,34,13.50
2015,07,29,06,35,13.50
2015,07,29,06,36,13.50
2015,07,29,06,37,13.60
2015,07,29,06,38,13.60
2015,07,29,06,39,13.70
2015,07,29,06,40,13.70
2015,07,29,06,41,13.70
2015,07,29,06,42,13.80
2015,07,29,06,43,13.80
2015,07,29,06,44,13.90
2015,07,29,06,45,13.90
2015,07,29,06,46,13.90
2015,07,29,06,47,14.00
2015,07,29,06,48,14.10
2015,07,29,06,49,14.10
2015,07,29,06,50,14.20
2015,07,29,06,51,14.20
2015,07,29,06,52,14.30
2015,07,29,06,53,14.30
2015,07,29,06,54,14.40
2015,07,29,06,55,14.40
2015,07,29,06,56,14.50
2015,07,29,06,57,14.60
2015,07,29,06,58,14.60
2015,07,29,06,59,14.70
2015,07,29,07,00,14.70
2015,07,29,07,01,14.80
2015,07,29,07,02,14.80
2015,07,29,07,03,14.90
2015,07,29,07,04,14.90
2015,07,29,07,05,15.00
2015,07,29,07,06,15.10
2015,07,29,07,07,15.10
2015,07,29,07,08,15.10
2015,07,29,07,09,15.20
2015,07,29,07,10,15.20
2015,07,29,07,11,15.30
2015,07,29,07,12,15.30
2015,07,29,07,13,15.40
2015,07,29,07,14,15.40
2015,07,29,07,15,15.40
2015,07,29,07,16,15.50
2015,07,29,07,17,15.50
2015,07,29,07,18,15.60
2015,07,29,07,19,15.60
2015,07,29,07,20,15.70
2015,07,29,07,21,15.70
2015,07,29,07,22,15.70
2015,07,29,07,23,15.70
2015,07,29,07,24,15.80
2015,07,29,07,25,15.80
2015,07,29,07,26,15.80
2015,07,29,07,27,15.80
2015,07,29,07,28,15.90
2015,07,29,07,29,15.90
2015,07,29,07,30,16.00
2015,07,29,07,31,16.00
2015,07,29,07,32,16.10
2015,07,29,07,33,16.10
2015,07,29,07,34,16.20
2015,07,29,07,35,16.20
2015,07,29,07,36,16.20
2015,07,29,07,37,16.30
2015,07,29,07,38,16.30
2015,07,29,07,39,16.30
2015,07,29,07,40,16.40
2015,07,29,07,41,16.40
2015,07,29,07,42,16.40
2015,07,29,07,43,16.40
2015,07,29,07,44,16.40
2015,07,29,07,45,16.40
2015,07,29,07,46,16.40
2015,07,29,07,47,16.50
2015,07,29,07,48,16.50
2015,07,29,07,49,16.50
2015,07,29,07,50,16.60
2015,07,29,07,51,16.60
2015,07,29,07,52,16.60
2015,07,29,07,53,16.70
2015,07,29,07,54,16.70
2015,07,29,07,55,16.70
2015,07,29,07,56,16.80
2015,07,29,07,57,16.80
2015,07,29,07,58,16.90
2015,07,29,07,59,16.90
2015,07,29,08,00,16.90
2015,07,29,08,01,17.00
2015,07,29,08,02,17.10
2015,07,29,08,03,17.10
2015,07,29,08,04,17.20
2015,07,29,08,05,17.20
2015,07,29,08,06,17.30
2015,07,29,08,07,17.40
2015,07,29,08,08,17.40
2015,07,29,08,09,17.40
2015,07,29,08,10,17.50
2015,07,29,08,11,17.50
2015,07,29,08,12,17.60
2015,07,29,08,13,17.60
2015,07,29,08,14,17.60
2015,07,29,08,15,17.70
2015,07,29,08,16,17.70
2015,07,29,08,17,17.70
2015,07,29,08,18,17.80
2015,07,29,08,19,17.80
2015,07,29,08,20,17.90
2015,07,29,08,21,17.90
2015,07,29,08,22,18.00
2015,07,29,08,23,18.00
2015,07,29,08,24,18.10
2015,07,29,08,25,18.20
2015,07,29,08,26,18.30
2015,07,29,08,27,18.40
2015,07,29,08,28,18.40
2015,07,29,08,29,18.60
2015,07,29,08,30,18.70
2015,07,29,08,31,18.80
2015,07,29,08,32,18.80
2015,07,29,08,33,18.90
2015,07,29,08,34,19.00
2015,07,29,08,35,19.10
2015,07,29,08,36,19.20
2015,07,29,08,37,19.30
2015,07,29,08,38,19.30
2015,07,29,08,39,19.40
2015,07,29,08,40,19.40
2015,07,29,08,41,19.50
2015,07,29,08,42,19.60
2015,07,29,08,43,19.60
2015,07,29,08,44,19.60
2015,07,29,08,45,19.70
2015,07,29,08,46,19.70
2015,07,29,08,47,19.80
2015,07,29,08,48,19.80
2015,07,29,08,49,19.90
2015,07,29,08,50,19.90
2015,07,29,08,51,20.00
2015,07,29,08,52,20.00
2015,07,29,08,53,20.10
2015,07,29,08,54,20.10
2015,07,29,08,55,20.20
2015,07,29,08,56,20.20
2015,07,29,08,57,20.30
2015,07,29,08,58,20.30
2015,07,29,08,59,20.30
2015,07,29,09,00,20.30
2015,07,29,09,01,20.40
2015,07,29,09,02,20.40
2015,07,29,09,03,20.50
2015,07,29,09,04,20.50
2015,07,29,09,05,20.60
2015,07,29,09,06,20.70
2015,07,29,09,07,20.80
2015,07,29,09,08,20.80
2015,07,29,09,09,20.80
2015,07,29,09,10,20.80
2015,07,29,09,11,20.80
2015,07,29,09,12,20.80
2015,07,29,09,13,20.80
2015,07,29,09,14,20.80
2015,07,29,09,15,20.80
2015,07,29,09,16,20.80
2015,07,29,09,17,20.80
2015,07,29,09,18,20.80
2015,07,29,09,19,20.80
2015,07,29,09,20,20.80
2015,07,29,09,21,20.80
2015,07,29,09,22,20.80
2015,07,29,09,23,20.80
2015,07,29,09,24,20.80
2015,07,29,09,25,20.80
2015,07,29,09,26,20.80
2015,07,29,09,27,20.80
2015,07,29,09,28,20.80
2015,07,29,09,29,20.80
2015,07,29,09,30,20.80
2015,07,29,09,31,20.90
2015,07,29,09,32,20.90
2015,07,29,09,33,20.90
2015,07,29,09,34,20.90
2015,07,29,09,35,20.90
2015,07,29,09,36,20.90
2015,07,29,09,37,20.90
2015,07,29,09,38,21.00
2015,07,29,09,39,21.00
2015,07,29,09,40,21.00
2015,07,29,09,41,21.10
2015,07,29,09,42,21.10
2015,07,29,09,43,21.10
2015,07,29,09,44,21.10
2015,07,29,09,45,21.10
2015,07,29,09,46,21.10
2015,07,29,09,47,21.10
2015,07,29,09,48,21.20
2015,07,29,09,49,21.20
2015,07,29,09,50,21.30
2015,07,29,09,51,21.30
2015,07,29,09,52,21.30
2015,07,29,09,53,21.30
2015,07,29,09,54,21.30
2015,07,29,09,55,21.40
2015,07,29,09,56,21.30
2015,07,29,09,57,21.40
2015,07,29,09,58,21.40
2015,07,29,09,59,21.40
2015,07,29,10,00,21.50
2015,07,29,10,01,21.40
2015,07,29,10,02,21.40
2015,07,29,10,03,21.50
2015,07,29,10,04,21.50
2015,07,29,10,05,21.60
2015,07,29,10,06,21.60
2015,07,29,10,07,21.70
2015,07,29,10,08,21.70
2015,07,29,10,09,21.80
2015,07,29,10,10,21.80
2015,07,29,10,11,21.90
2015,07,29,10,12,21.90
2015,07,29,10,13,21.90
2015,07,29,10,14,21.90
2015,07,29,10,15,22.00
2015,07,29,10,16,22.10
2015,07,29,10,17,22.10
2015,07,29,10,18,22.10
2015,07,29,10,19,22.10
2015,07,29,10,20,22.10
2015,07,29,10,21,22.20
2015,07,29,10,22,22.20
2015,07,29,10,23,22.20
2015,07,29,10,24,22.30
2015,07,29,10,25,22.40
2015,07,29,10,26,22.50
2015,07,29,10,27,22.60
2015,07,29,10,28,22.60
2015,07,29,10,29,22.70
2015,07,29,10,30,22.70
2015,07,29,10,31,22.80
2015,07,29,10,32,22.80
2015,07,29,10,33,22.80
2015,07,29,10,34,22.90
2015,07,29,10,35,23.00
2015,07,29,10,36,23.00
2015,07,29,10,37,23.10
2015,07,29,10,38,23.10
2015,07,29,10,39,23.10
2015,07,29,10,40,23.20
2015,07,29,10,41,23.20
2015,07,29,10,42,23.30
2015,07,29,10,43,23.30
2015,07,29,10,44,23.30
2015,07,29,10,45,23.40
2015,07,29,10,46,23.50
2015,07,29,10,47,23.60
2015,07,29,10,48,23.70
2015,07,29,10,49,23.70
2015,07,29,10,50,23.70
2015,07,29,10,51,23.70
2015,07,29,10,52,23.70
2015,07,29,10,53,23.70
2015,07,29,10,54,23.70
2015,07,29,10,55,23.70
2015,07,29,10,56,23.70
2015,07,29,10,57,23.70
2015,07,29,10,58,23.80
2015,07,29,10,59,23.90
2015,07,29,11,00,23.90
2015,07,29,11,01,23.90
2015,07,29,11,02,23.90
2015,07,29,11,03,23.90
2015,07,29,11,04,23.90
2015,07,29,11,05,23.90
2015,07,29,11,06,23.80
2015,07,29,11,07,23.90
2015,07,29,11,08,24.00
2015,07,29,11,09,24.20
2015,07,29,11,10,24.30
2015,07,29,11,11,24.40
2015,07,29,11,12,24.40
2015,07,29,11,13,24.30
2015,07,29,11,14,24.30
2015,07,29,11,15,24.40
2015,07,29,11,16,24.50
2015,07,29,11,17,24.40
2015,07,29,11,18,24.40
2015,07,29,11,19,24.40
2015,07,29,11,20,24.40
2015,07,29,11,21,24.40
2015,07,29,11,22,24.50
2015,07,29,11,23,24.50
2015,07,29,11,24,24.60
2015,07,29,11,25,24.70
2015,07,29,11,26,24.70
2015,07,29,11,27,24.50
2015,07,29,11,28,24.30
2015,07,29,11,29,24.10
2015,07,29,11,30,23.90
2015,07,29,11,31,23.80
2015,07,29,11,32,23.80
2015,07,29,11,33,23.70
2015,07,29,11,34,23.50
2015,07,29,11,35,23.40
2015,07,29,11,36,23.40
2015,07,29,11,37,23.30
2015,07,29,11,38,23.30
2015,07,29,11,39,23.30
2015,07,29,11,40,23.30
2015,07,29,11,41,23.40
2015,07,29,11,42,23.40
2015,07,29,11,43,23.30
2015,07,29,11,44,23.20
2015,07,29,11,45,23.00
2015,07,29,11,46,22.90
2015,07,29,11,47,22.90
2015,07,29,11,48,22.90
2015,07,29,11,49,22.80
2015,07,29,11,50,22.80
2015,07,29,11,51,22.90
2015,07,29,11,52,23.10
2015,07,29,11,53,23.30
2015,07,29,11,54,23.50
2015,07,29,11,55,23.60
2015,07,29,11,56,23.60
2015,07,29,11,57,23.50
2015,07,29,11,58,23.40
2015,07,29,11,59,23.60
2015,07,29,12,00,23.70
2015,07,29,12,01,23.80
2015,07,29,12,02,23.80
2015,07,29,12,03,23.70
2015,07,29,12,04,23.60
2015,07,29,12,05,23.60
2015,07,29,12,06,23.60
2015,07,29,12,07,23.60
2015,07,29,12,08,23.60
2015,07,29,12,09,23.60
2015,07,29,12,10,23.70
2015,07,29,12,11,23.60
2015,07,29,12,12,23.60
2015,07,29,12,13,23.60
2015,07,29,12,14,23.60
2015,07,29,12,15,23.60
2015,07,29,12,16,23.60
2015,07,29,12,17,23.50
2015,07,29,12,18,23.50
2015,07,29,12,19,23.50
2015,07,29,12,20,23.50
2015,07,29,12,21,23.50
2015,07,29,12,22,23.50
2015,07,29,12,23,23.60
2015,07,29,12,24,23.50
2015,07,29,12,25,23.50
2015,07,29,12,26,23.50
2015,07,29,12,27,23.60
2015,07,29,12,28,23.70
2015,07,29,12,29,23.80
2015,07,29,12,30,23.80
2015,07,29,12,31,23.90
2015,07,29,12,32,23.90
2015,07,29,12,33,24.00
2015,07,29,12,34,24.10
2015,07,29,12,35,24.20
2015,07,29,12,36,24.40
2015,07,29,12,37,24.60
2015,07,29,12,38,24.70
2015,07,29,12,39,24.60
2015,07,29,12,40,24.70
2015,07,29,12,41,24.70
2015,07,29,12,42,24.80
2015,07,29,12,43,24.90
2015,07,29,12,44,25.00
2015,07,29,12,45,25.10
2015,07,29,12,46,25.20
2015,07,29,12,47,25.30
2015,07,29,12,48,25.30
2015,07,29,12,49,25.30
2015,07,29,12,50,25.30
2015,07,29,12,51,25.30
2015,07,29,12,52,25.40
2015,07,29,12,53,25.50
2015,07,29,12,54,25.30
2015,07,29,12,55,25.10
2015,07,29,12,56,25.00
2015,07,29,12,57,24.90
2015,07,29,12,58,24.80
2015,07,29,12,59,24.70
2015,07,29,13,00,24.60
2015,07,29,13,01,24.40
2015,07,29,13,02,24.30
2015,07,29,13,03,24.20
2015,07,29,13,04,24.30
2015,07,29,13,05,24.30
2015,07,29,13,06,24.30
2015,07,29,13,07,24.30
2015,07,29,13,08,24.30
2015,07,29,13,09,24.30
2015,07,29,13,10,24.40
2015,07,29,13,11,24.50
2015,07,29,13,12,24.70
2015,07,29,13,13,24.80
2015,07,29,13,14,24.90
2015,07,29,13,15,24.90
2015,07,29,13,16,24.90
2015,07,29,13,17,24.90
2015,07,29,13,18,24.80
2015,07,29,13,19,24.80
2015,07,29,13,20,24.80
2015,07,29,13,21,24.90
2015,07,29,13,22,24.90
2015,07,29,13,23,25.10
2015,07,29,13,24,25.10
2015,07,29,13,25,25.10
2015,07,29,13,26,25.00
2015,07,29,13,27,24.80
2015,07,29,13,28,24.80
2015,07,29,13,29,24.70
2015,07,29,13,30,24.60
2015,07,29,13,31,24.80
2015,07,29,13,32,24.90
2015,07,29,13,33,25.00
2015,07,29,13,34,25.10
2015,07,29,13,35,25.20
2015,07,29,13,36,25.10
2015,07,29,13,37,25.20
2015,07,29,13,38,25.20
2015,07,29,13,39,25.20
2015,07,29,13,40,25.00
2015,07,29,13,41,25.00
2015,07,29,13,42,25.10
2015,07,29,13,43,25.10
2015,07,29,13,44,25.00
2015,07,29,13,45,25.00
2015,07,29,13,46,24.90
2015,07,29,13,47,24.90
2015,07,29,13,48,24.90
2015,07,29,13,49,24.90
2015,07,29,13,50,24.80
2015,07,29,13,51,24.80
2015,07,29,13,52,24.80
2015,07,29,13,53,24.80
2015,07,29,13,54,24.80
2015,07,29,13,55,24.80
2015,07,29,13,56,25.00
2015,07,29,13,57,25.00
2015,07,29,13,58,25.20
2015,07,29,13,59,25.40
2015,07,29,14,00,25.60
2015,07,29,14,01,25.70
2015,07,29,14,02,25.80
2015,07,29,14,03,25.70
2015,07,29,14,04,25.60
2015,07,29,14,05,25.60
2015,07,29,14,06,25.60
2015,07,29,14,07,25.80
2015,07,29,14,08,25.80
2015,07,29,14,09,25.90
2015,07,29,14,10,25.90
2015,07,29,14,11,25.80
2015,07,29,14,12,25.80
2015,07,29,14,13,25.80
2015,07,29,14,14,25.90
2015,07,29,14,15,26.10
2015,07,29,14,16,26.10
2015,07,29,14,17,26.20
2015,07,29,14,18,26.30
2015,07,29,14,19,26.50
2015,07,29,14,20,26.50
2015,07,29,14,21,26.30
2015,07,29,14,22,26.10
2015,07,29,14,23,26.00
2015,07,29,14,24,26.00
2015,07,29,14,25,26.00
2015,07,29,14,26,26.10
2015,07,29,14,27,26.30
2015,07,29,14,28,26.40
2015,07,29,14,29,26.40
2015,07,29,14,30,26.40
2015,07,29,14,31,26.40
2015,07,29,14,32,26.40
2015,07,29,14,33,26.40
2015,07,29,14,34,26.40
2015,07,29,14,35,26.40
2015,07,29,14,36,26.40
2015,07,29,14,37,26.30
2015,07,29,14,38,26.30
2015,07,29,14,39,26.30
2015,07,29,14,40,26.20
2015,07,29,14,41,26.20
2015,07,29,14,42,26.20
2015,07,29,14,43,26.30
2015,07,29,14,44,26.30
2015,07,29,14,45,26.40
2015,07,29,14,46,26.50
2015,07,29,14,47,26.60
2015,07,29,14,48,26.70
2015,07,29,14,49,26.80
2015,07,29,14,50,26.70
2015,07,29,14,51,26.60
2015,07,29,14,52,26.50
2015,07,29,14,53,26.40
2015,07,29,14,54,26.40
2015,07,29,14,55,26.40
2015,07,29,14,56,26.50
2015,07,29,14,57,26.60
2015,07,29,14,58,26.70
2015,07,29,14,59,26.80
2015,07,29,15,00,26.80
2015,07,29,15,01,26.90
2015,07,29,15,02,27.00
2015,07,29,15,03,27.10
2015,07,29,15,04,27.10
2015,07,29,15,05,27.00
2015,07,29,15,06,26.90
2015,07,29,15,07,26.80
2015,07,29,15,08,26.90
2015,07,29,15,09,26.90
2015,07,29,15,10,26.90
2015,07,29,15,11,26.90
2015,07,29,15,12,27.00
2015,07,29,15,13,27.10
2015,07,29,15,14,27.20
2015,07,29,15,15,27.30
2015,07,29,15,16,27.30
2015,07,29,15,17,27.30
2015,07,29,15,18,27.30
2015,07,29,15,19,27.40
2015,07,29,15,20,27.40
2015,07,29,15,21,27.30
2015,07,29,15,22,27.30
2015,07,29,15,23,27.40
2015,07,29,15,24,27.50
2015,07,29,15,25,27.60
2015,07,29,15,26,27.50
2015,07,29,15,27,27.50
2015,07,29,15,28,27.50
2015,07,29,15,29,27.60
2015,07,29,15,30,27.60
2015,07,29,15,31,27.60
2015,07,29,15,32,27.60
2015,07,29,15,33,27.70
2015,07,29,15,34,27.60
2015,07,29,15,35,27.60
2015,07,29,15,36,27.60
2015,07,29,15,37,27.70
2015,07,29,15,38,27.70
2015,07,29,15,39,27.70
2015,07,29,15,40,27.70
2015,07,29,15,41,27.70
2015,07,29,15,42,27.70
2015,07,29,15,43,27.70
2015,07,29,15,44,27.70
2015,07,29,15,45,27.80
2015,07,29,15,46,27.70
2015,07,29,15,47,27.70
2015,07,29,15,48,27.80
2015,07,29,15,49,27.90
2015,07,29,15,50,28.00
2015,07,29,15,51,28.10
2015,07,29,15,52,28.00
2015,07,29,15,53,28.00
2015,07,29,15,54,27.90
2015,07,29,15,55,28.00
2015,07,29,15,56,28.10
2015,07,29,15,57,28.10
2015,07,29,15,58,28.10
2015,07,29,15,59,28.00
2015,07,29,16,00,27.90
2015,07,29,16,01,27.80
2015,07,29,16,02,27.80
2015,07,29,16,03,27.80
2015,07,29,16,04,27.80
2015,07,29,16,05,27.80
2015,07,29,16,06,27.90
2015,07,29,16,07,28.00
2015,07,29,16,08,28.10
2015,07,29,16,09,28.20
2015,07,29,16,10,28.20
2015,07,29,16,11,28.30
2015,07,29,16,12,28.30
2015,07,29,16,13,28.30
2015,07,29,16,14,28.20
2015,07,29,16,15,28.20
2015,07,29,16,16,28.20
2015,07,29,16,17,28.20
2015,07,29,16,18,28.30
2015,07,29,16,19,28.40
2015,07,29,16,20,28.50
2015,07,29,16,21,28.60
2015,07,29,16,22,28.50
2015,07,29,16,23,28.50
2015,07,29,16,24,28.30
2015,07,29,16,25,28.20
2015,07,29,16,26,28.10
2015,07,29,16,27,28.10
2015,07,29,16,28,28.10
2015,07,29,16,29,28.00
2015,07,29,16,30,27.90
2015,07,29,16,31,27.90
2015,07,29,16,32,27.90
2015,07,29,16,33,28.00
2015,07,29,16,34,28.10
2015,07,29,16,35,28.10
2015,07,29,16,36,28.20
2015,07,29,16,37,28.30
2015,07,29,16,38,28.30
2015,07,29,16,39,28.30
2015,07,29,16,40,28.30
2015,07,29,16,41,28.30
2015,07,29,16,42,28.30
2015,07,29,16,43,28.30
2015,07,29,16,44,28.30
2015,07,29,16,45,28.30
2015,07,29,16,46,28.10
2015,07,29,16,47,27.90
2015,07,29,16,48,27.70
2015,07,29,16,49,27.60
2015,07,29,16,50,27.60
2015,07,29,16,51,27.60
2015,07,29,16,52,27.70
2015,07,29,16,53,27.80
2015,07,29,16,54,28.00
2015,07,29,16,55,28.10
2015,07,29,16,56,28.20
2015,07,29,16,57,28.10
2015,07,29,16,58,28.00
2015,07,29,16,59,28.00
2015,07,29,17,00,28.10
2015,07,29,17,01,28.20
2015,07,29,17,02,28.20
2015,07,29,17,03,28.20
2015,07,29,17,04,28.10
2015,07,29,17,05,28.00
2015,07,29,17,06,27.90
2015,07,29,17,07,28.00
2015,07,29,17,08,28.00
2015,07,29,17,09,28.10
2015,07,29,17,10,28.20
2015,07,29,17,11,28.30
2015,07,29,17,12,28.40
2015,07,29,17,13,28.40
2015,07,29,17,14,28.30
2015,07,29,17,15,28.20
2015,07,29,17,16,28.20
2015,07,29,17,17,28.30
2015,07,29,17,18,28.40
2015,07,29,17,19,28.40